{"data":{"norad_id":56287,"epoch":"2026-09-20T10:39:13.112064Z","epoch_age_seconds":113457,"freshness":"FRESH","line1":"1 56287U 23056B   26263.44390176  .00003049  00000+0  12035-3 0  9996","line2":"2 56287  43.0016 171.2817 0000996 276.6877  83.3861 15.27560345190083","mean_motion":15.27560345,"eccentricity":9.96e-5,"inclination_deg":43.0016,"raan_deg":171.2817,"arg_perigee_deg":276.6877,"mean_anomaly_deg":83.3861,"bstar":0.00012035,"rev_number":19008,"period_min":94.267961636566,"perigee_km":482.42457081446,"apogee_km":483.79133080866,"semimajor_km":6861.2449508116,"source":"CELESTRAK","updated_at":"2026-09-21T09:00:33.391346Z"}}